sat.trackr.live / text

‹ back to catalog

STARLINK-2735

NORAD 48667 · 2021-044AF

PAYLOAD ACTIVE UNKNOWN

§ Identity

Operator
Country
US
Launch date
2021-05-26
Launch site
AFETR
Launch vehicle
Mass (kg)
RCS (m²)

Purposes: comms

External: N2YO · Heavens-Above · Gunter

§ Orbital elements

Epoch: 2026-09-19T16:51:25.015968Z

Period
94.01 min
Inclination
53.1602°
Eccentricity
0.0001335
Mean motion
15.31700311 rev/d
Perigee alt
469.8 km
Apogee alt
471.7 km
Semi-major
6,848.9 km
B*
1.7697e-5
RAAN
292.5183°
Arg perigee
77.0639°
Mean anomaly
283.0511°
Rev number
29,352

§ Raw data

STARLINK-27351 48667U 21044AF  26262.70237287  .00000184  00000+0  17697-4 0  99922 48667  53.1602 292.5183 0001335  77.0639 283.0511 15.31700311293527

JSON: /api/v1/satellites/48667 · /tle

For live sub-satellite position, see the globe view (requires WebGL).

§ Visibility from observer

Set your observer location to see the next 7 days of passes ≥ 10°. The values pass through the URL so the page stays shareable.

No JS? Fill the form by hand. The geolocation button needs JavaScript.